TimeEST,TemperatureF,Dew PointF,Humidity,Sea Level PressureIn,VisibilityMPH,Wind Direction,Wind SpeedMPH,Gust SpeedMPH,PrecipitationIn,Events,Conditions,WindDirDegrees,DateUTC
12:53 AM,32.0,30.0,92,30.33,6.0,Calm,Calm,-,N/A,,Clear,0,2012-12-14 05:53:00
1:53 AM,34.0,30.9,89,30.34,7.0,Calm,Calm,-,N/A,,Clear,0,2012-12-14 06:53:00
2:53 AM,30.9,28.9,92,30.36,5.0,Calm,Calm,-,N/A,,Clear,0,2012-12-14 07:53:00
3:36 AM,32.0,30.2,93,30.35,4.0,Calm,Calm,-,N/A,,Scattered Clouds,0,2012-12-14 08:36:00
3:53 AM,32.0,28.9,88,30.37,7.0,Calm,Calm,-,N/A,,Scattered Clouds,0,2012-12-14 08:53:00
4:53 AM,30.9,28.9,92,30.38,6.0,Calm,Calm,-,N/A,,Partly Cloudy,0,2012-12-14 09:53:00
5:53 AM,30.0,28.9,96,30.36,7.0,ENE,4.6,-,N/A,,Scattered Clouds,70,2012-12-14 10:53:00
6:53 AM,28.4,28.4,100,30.36,5.0,Calm,Calm,-,N/A,,Partly Cloudy,0,2012-12-14 11:53:00
7:53 AM,27.0,25.0,92,30.39,5.0,NNE,5.8,-,N/A,,Partly Cloudy,30,2012-12-14 12:53:00
7:56 AM,26.6,24.8,93,30.37,0.2,NNE,4.6,-,N/A,Fog,Light Freezing Fog,30,2012-12-14 12:56:00
7:59 AM,26.6,24.8,93,30.37,3.0,NE,5.8,-,N/A,,Partly Cloudy,40,2012-12-14 12:59:00
8:04 AM,28.4,26.6,93,30.37,1.5,NNE,3.5,-,N/A,,Scattered Clouds,20,2012-12-14 13:04:00
8:10 AM,28.4,26.6,93,30.37,1.0,NNE,3.5,-,N/A,,Mostly Cloudy,30,2012-12-14 13:10:00
8:19 AM,28.4,26.6,93,30.37,0.8,NNE,3.5,-,N/A,,Mostly Cloudy,20,2012-12-14 13:19:00
8:33 AM,30.2,28.4,93,30.37,0.2,Calm,Calm,-,N/A,Fog,Light Freezing Fog,0,2012-12-14 13:33:00
8:53 AM,30.9,30.0,96,30.39,0.2,Calm,Calm,-,N/A,Fog,Light Freezing Fog,0,2012-12-14 13:53:00
9:09 AM,33.8,30.2,87,30.38,0.5,NNE,4.6,-,N/A,Fog,Fog,20,2012-12-14 14:09:00
9:17 AM,33.8,30.2,87,30.38,1.0,NNE,4.6,-,N/A,,Mostly Cloudy,30,2012-12-14 14:17:00
9:23 AM,33.8,32.0,93,30.38,1.2,NE,4.6,-,N/A,,Scattered Clouds,40,2012-12-14 14:23:00
9:33 AM,35.6,33.8,93,30.38,1.5,NNE,4.6,-,N/A,,Scattered Clouds,30,2012-12-14 14:33:00
9:42 AM,35.6,33.8,93,30.38,2.5,NNE,4.6,-,N/A,,Scattered Clouds,30,2012-12-14 14:42:00
9:53 AM,37.0,34.0,89,30.40,3.0,NE,5.8,-,N/A,,Partly Cloudy,50,2012-12-14 14:53:00
10:53 AM,43.0,36.0,76,30.38,10.0,Calm,Calm,-,N/A,,Partly Cloudy,0,2012-12-14 15:53:00
11:15 AM,44.6,35.6,71,30.36,10.0,North,6.9,-,N/A,,Partly Cloudy,10,2012-12-14 16:15:00
11:53 AM,48.0,37.0,66,30.36,10.0,North,4.6,-,N/A,,Clear,10,2012-12-14 16:53:00
12:53 PM,50.0,37.0,61,30.32,10.0,Calm,Calm,-,N/A,,Clear,0,2012-12-14 17:53:00
1:53 PM,53.1,36.0,52,30.27,10.0,Calm,Calm,-,N/A,,Clear,0,2012-12-14 18:53:00
2:53 PM,55.9,35.1,45,30.24,10.0,Calm,Calm,-,N/A,,Clear,0,2012-12-14 19:53:00
3:53 PM,55.0,34.0,45,30.24,10.0,NW,4.6,-,N/A,,Clear,320,2012-12-14 20:53:00
4:53 PM,53.1,33.1,47,30.24,10.0,Calm,Calm,-,N/A,,Clear,0,2012-12-14 21:53:00
5:53 PM,50.0,34.0,54,30.23,10.0,Calm,Calm,-,N/A,,Clear,0,2012-12-14 22:53:00
6:53 PM,46.0,34.0,63,30.23,10.0,Calm,Calm,-,N/A,,Clear,0,2012-12-14 23:53:00
7:53 PM,46.0,33.1,61,30.24,10.0,Calm,Calm,-,N/A,,Clear,0,2012-12-15 00:53:00
8:53 PM,43.0,34.0,71,30.26,10.0,Calm,Calm,-,N/A,,Clear,0,2012-12-15 01:53:00
9:53 PM,41.0,34.0,76,30.25,10.0,Calm,Calm,-,N/A,,Clear,0,2012-12-15 02:53:00
10:53 PM,37.9,33.1,83,30.22,9.0,NE,3.5,-,N/A,,Clear,40,2012-12-15 03:53:00
11:53 PM,37.9,34.0,86,30.20,10.0,ENE,3.5,-,N/A,,Clear,70,2012-12-15 04:53:00